Dallas, TX

6:28 AM CST on January 19, 2017 (GMT -0600)
Redbird

Weather History for KRBD - June, 2014

Change the Weather History Date:

Sunday, June 8, 2014

  Actual Average Record
Temperature  
Mean Temperature 79 °F -  
Max Temperature 88 °F 86 °F 96 °F (2006)
Min Temperature 71 °F 68 °F 61 °F (2013)
Cooling Degree Days 14    
Growing Degree Days 29 (Base 50)    
Moisture  
Dew Point 69 °F    
Average Humidity 70    
Maximum Humidity 87    
Minimum Humidity 55    
Precipitation  
Precipitation 0.11 in - - ()
Sea Level Pressure  
Sea Level Pressure 29.87 in    
Wind  
Wind Speed 9 mph (SSW)    
Max Wind Speed 20 mph    
Max Gust Speed 24 mph    
Visibility 9 miles    
Events Rain    
Averages and records for this station are not official NWS values.
T = Trace of Precipitation, MM = Missing Value Source: NWS Daily Summary

Daily Weather History Graph

Daily Weather History Graph

Search for Another Location

Airport or City:

Trip Planner

Search our weather history database for the weather conditions in past years. The results will help you decide how hot, cold, wet, or windy it might be!

Date:

Astronomy

Jun. 08, 2014 Rise Set
Actual Time 6:19 AM CDT 8:34 PM CDT
Civil Twilight 5:50 AM CDT 9:02 PM CDT
Nautical Twilight 5:16 AM CDT 9:37 PM CDT
Astronomical Twilight 4:38 AM CDT 10:14 PM CDT
Moon 4:06 PM CDT (6/8) 2:58 AM CDT (6/8)
Length of Visible Light 15h 11m
Length of Day
14h 14m
Waxing Gibbous, 77% of the Moon is Illuminated
Jun 8
Waxing Gibbous
Jun 12
Full
Jun 19
Last Quarter
Jun 27
New
Jul 5
First Quarter

Hourly Weather History & Observations

Time (CDT) Temp. Heat Index Dew Point Humidity Pressure Visibility Wind Dir Wind Speed Gust Speed Precip Events Conditions
12:53 AM 82.9 °F 87.0 °F 70.0 °F 65% 29.85 in 10.0 mi SSE 10.4 mph - N/A   Clear
1:53 AM 82.0 °F 85.9 °F 70.0 °F 67% 29.85 in 10.0 mi South 8.1 mph - N/A   Clear
2:53 AM 81.0 °F 84.4 °F 70.0 °F 69% 29.84 in 10.0 mi South 8.1 mph 18.4 mph N/A   Clear
3:53 AM 80.1 °F 83.2 °F 70.0 °F 71% 29.83 in 10.0 mi South 10.4 mph 19.6 mph N/A   Clear
4:53 AM 79.0 °F - 70.0 °F 74% 29.85 in 10.0 mi South 8.1 mph 17.3 mph N/A   Clear
5:53 AM 78.1 °F - 69.1 °F 74% 29.87 in 10.0 mi South 4.6 mph - N/A   Partly Cloudy
6:53 AM 77.0 °F - 69.1 °F 76% 29.92 in 10.0 mi Variable 5.8 mph - N/A   Overcast
7:53 AM 75.9 °F - 70.0 °F 82% 29.96 in 9.0 mi SW 8.1 mph 16.1 mph 0.00 in Rain Light Rain
8:21 AM 75.2 °F - 69.8 °F 83% 29.99 in 10.0 mi NW 18.4 mph 23.0 mph 0.00 in Rain Light Rain
8:32 AM 73.4 °F - 66.2 °F 78% 29.99 in 7.0 mi WNW 12.7 mph - 0.00 in Rain Light Rain
8:35 AM 73.4 °F - 66.2 °F 78% 29.99 in 2.5 mi WNW 15.0 mph - 0.00 in Rain Rain
8:42 AM 71.6 °F - 66.2 °F 83% 30.00 in 3.0 mi WNW 15.0 mph 21.9 mph 0.01 in Rain Light Rain
8:53 AM 71.1 °F - 66.9 °F 87% 29.99 in 3.0 mi WNW 11.5 mph - 0.01 in Rain Light Rain
9:53 AM 72.0 °F - 66.0 °F 81% 29.96 in 10.0 mi Calm Calm - 0.00 in   Overcast
10:53 AM 73.0 °F - 68.0 °F 84% 29.92 in 10.0 mi SE 8.1 mph - 0.02 in Rain Light Rain
11:53 AM 75.9 °F - 69.1 °F 79% 29.80 in 10.0 mi SE 19.6 mph 24.2 mph 0.02 in   Partly Cloudy
12:53 PM 82.9 °F 86.5 °F 69.1 °F 63% 29.87 in 10.0 mi SSE 10.4 mph 18.4 mph 0.02 in   Clear
1:53 PM 84.9 °F 89.4 °F 70.0 °F 61% 29.85 in 10.0 mi SSW 9.2 mph 17.3 mph 0.03 in   Scattered Clouds
2:53 PM 87.1 °F 92.0 °F 70.0 °F 57% 29.84 in 10.0 mi SSW 8.1 mph - 0.01 in   Mostly Cloudy
3:53 PM 86.0 °F 90.1 °F 69.1 °F 57% 29.82 in 10.0 mi SW 8.1 mph - N/A   Mostly Cloudy
4:53 PM 86.0 °F 90.1 °F 69.1 °F 57% 29.81 in 10.0 mi Variable 5.8 mph - N/A   Overcast
5:53 PM 87.1 °F 92.0 °F 70.0 °F 57% 29.79 in 10.0 mi West 6.9 mph - N/A   Mostly Cloudy
6:53 PM 87.1 °F 91.3 °F 69.1 °F 55% 29.77 in 10.0 mi SW 4.6 mph - N/A   Partly Cloudy
7:53 PM 86.0 °F 90.7 °F 70.0 °F 59% 29.76 in 10.0 mi South 4.6 mph - N/A   Partly Cloudy
8:53 PM 82.9 °F 87.0 °F 70.0 °F 65% 29.76 in 10.0 mi SSE 4.6 mph - N/A   Clear
9:53 PM 84.0 °F 88.4 °F 70.0 °F 63% 29.79 in 10.0 mi Calm Calm - N/A   Overcast
10:53 PM 82.0 °F 86.3 °F 71.1 °F 69% 29.80 in 10.0 mi South 4.6 mph - N/A   Mostly Cloudy
11:53 PM 81.0 °F 84.9 °F 71.1 °F 72% 29.79 in 10.0 mi SSE 4.6 mph - N/A   Clear